LHA524 KBZN-KBFI

Flight info

Callsign LHA524
Flight time 1h 22m
Altitude 38000
Route HIA DCT MLP
Aircraft A320/M-SDE1E2FGIJ1RWYZ/LB1

Departure

Time 2026-05-08 19:37
Airport Bozeman Yellowstone International Airport (KBZN)

Arrival

Time 2026-05-08 21:00
Airport King County International Airport - Boeing Field (KBFI)
Time Latitude Longitude Altitude Speed Heading
2026-05-08 19:18 45.77890 -111.16028 4451 ft 0 kts 227°
2026-05-08 19:27 45.77887 -111.16034 4451 ft 0 kts 227°
2026-05-08 19:28 45.77888 -111.16031 4451 ft 2 kts 227°
2026-05-08 19:29 45.77901 -111.16013 4451 ft 3 kts 233°
2026-05-08 19:29 45.77909 -111.15990 4451 ft 3 kts 270°
2026-05-08 19:29 45.77905 -111.15965 4451 ft 3 kts 307°
2026-05-08 19:29 45.77898 -111.15953 4451 ft 0 kts 322°
2026-05-08 19:30 45.77901 -111.15957 4451 ft 0 kts 322°
2026-05-08 19:33 45.77902 -111.15958 4451 ft 1 kts 322°
2026-05-08 19:33 45.77918 -111.15978 4451 ft 6 kts 317°
2026-05-08 19:33 45.77960 -111.16035 4450 ft 10 kts 316°
2026-05-08 19:33 45.78022 -111.16059 4449 ft 11 kts 33°
2026-05-08 19:34 45.78096 -111.16069 4448 ft 13 kts 322°
2026-05-08 19:34 45.78170 -111.16170 4446 ft 16 kts 315°
2026-05-08 19:34 45.78254 -111.16292 4444 ft 18 kts 315°
2026-05-08 19:34 45.78352 -111.16427 4442 ft 21 kts 316°
2026-05-08 19:35 45.78460 -111.16577 4440 ft 22 kts 315°
2026-05-08 19:35 45.78566 -111.16722 4438 ft 19 kts 316°
2026-05-08 19:35 45.78643 -111.16817 4436 ft 13 kts 336°
2026-05-08 19:35 45.78720 -111.16760 4436 ft 15 kts 46°
2026-05-08 19:36 45.78761 -111.16638 4437 ft 13 kts 89°
2026-05-08 19:36 45.78722 -111.16525 4438 ft 13 kts 136°
2026-05-08 19:36 45.78611 -111.16370 4440 ft 48 kts 136°
2026-05-08 19:36 45.78172 -111.15763 4451 ft 124 kts 135°
2026-05-08 19:37 45.77406 -111.14698 4490 ft 178 kts 136°
2026-05-08 19:37 45.76467 -111.13537 5178 ft 182 kts 153°
2026-05-08 19:37 45.75244 -111.13259 6046 ft 182 kts 197°
2026-05-08 19:37 45.74096 -111.13949 6832 ft 186 kts 208°
2026-05-08 19:38 45.72859 -111.14806 7251 ft 208 kts 210°
2026-05-08 19:38 45.71492 -111.15771 7484 ft 232 kts 209°
2026-05-08 19:38 45.69970 -111.16836 7943 ft 251 kts 208°
2026-05-08 19:38 45.68381 -111.17933 8831 ft 257 kts 208°
2026-05-08 19:39 45.66766 -111.19078 9823 ft 259 kts 214°
2026-05-08 19:39 45.65549 -111.20919 10635 ft 257 kts 248°
2026-05-08 19:39 45.65274 -111.23448 11275 ft 267 kts 277°
2026-05-08 19:39 45.65749 -111.26063 11908 ft 278 kts 289°
2026-05-08 19:40 45.66499 -111.28660 12539 ft 287 kts 293°
2026-05-08 19:40 45.67307 -111.31288 13177 ft 296 kts 292°
2026-05-08 19:40 45.68106 -111.34043 13827 ft 304 kts 291°
2026-05-08 19:40 45.68860 -111.36900 14419 ft 310 kts 289°
2026-05-08 19:41 45.69568 -111.39835 15011 ft 316 kts 288°
2026-05-08 19:41 45.70250 -111.42850 15619 ft 321 kts 287°
2026-05-08 19:41 45.70927 -111.45938 16125 ft 329 kts 287°
2026-05-08 19:41 45.71614 -111.49106 16638 ft 338 kts 287°
2026-05-08 19:42 45.72314 -111.52354 17137 ft 345 kts 287°
2026-05-08 19:42 45.73031 -111.55664 17657 ft 352 kts 287°
2026-05-08 19:42 45.73762 -111.59040 18183 ft 358 kts 287°
2026-05-08 19:42 45.74507 -111.62477 18648 ft 365 kts 287°
2026-05-08 19:43 45.75266 -111.65982 19117 ft 372 kts 287°
2026-05-08 19:43 45.76037 -111.69554 19579 ft 378 kts 287°
2026-05-08 19:43 45.76817 -111.73179 20071 ft 384 kts 288°
2026-05-08 19:43 45.77615 -111.76868 20558 ft 389 kts 288°
2026-05-08 19:44 45.78422 -111.80596 21003 ft 394 kts 288°
2026-05-08 19:44 45.79236 -111.84363 21464 ft 398 kts 288°
2026-05-08 19:44 45.80054 -111.88163 21950 ft 400 kts 288°
2026-05-08 19:44 45.80875 -111.91981 22433 ft 402 kts 288°
2026-05-08 19:45 45.81690 -111.95778 22920 ft 404 kts 288°
2026-05-08 19:45 45.82520 -111.99683 23381 ft 406 kts 288°
2026-05-08 19:45 45.83336 -112.03517 23774 ft 408 kts 288°
2026-05-08 19:45 45.84164 -112.07422 24152 ft 410 kts 288°
2026-05-08 19:46 45.84996 -112.11356 24529 ft 412 kts 288°
2026-05-08 19:46 45.85875 -112.15273 24887 ft 414 kts 292°
2026-05-08 19:46 45.88810 -112.22377 25642 ft 416 kts 304°
2026-05-08 19:47 45.90478 -112.25788 26013 ft 418 kts 304°
2026-05-08 19:47 45.92151 -112.29214 26384 ft 420 kts 304°
2026-05-08 19:47 45.93825 -112.32650 26735 ft 421 kts 304°
2026-05-08 19:47 45.95502 -112.36103 27065 ft 423 kts 304°
2026-05-08 19:48 45.97186 -112.39586 27393 ft 425 kts 304°
2026-05-08 19:48 45.98877 -112.43083 27739 ft 426 kts 304°
2026-05-08 19:48 46.00568 -112.46584 28220 ft 425 kts 304°
2026-05-08 19:48 46.02244 -112.50057 28726 ft 423 kts 304°
2026-05-08 19:49 46.03919 -112.53530 29220 ft 421 kts 304°
2026-05-08 19:49 46.05585 -112.56989 29716 ft 420 kts 304°
2026-05-08 19:49 46.07245 -112.60440 30214 ft 418 kts 304°
2026-05-08 19:49 46.08895 -112.63879 30650 ft 416 kts 303°
2026-05-08 19:50 46.10535 -112.67303 31078 ft 414 kts 303°
2026-05-08 19:50 46.12169 -112.70719 31499 ft 413 kts 303°
2026-05-08 19:50 46.13801 -112.74131 31943 ft 412 kts 303°
2026-05-08 19:50 46.15424 -112.77525 32392 ft 410 kts 303°
2026-05-08 19:51 46.17037 -112.80898 32843 ft 408 kts 303°
2026-05-08 19:51 46.18647 -112.84269 33281 ft 407 kts 303°
2026-05-08 19:51 46.20228 -112.87579 33725 ft 405 kts 302°
2026-05-08 19:51 46.21821 -112.90924 34166 ft 404 kts 302°
2026-05-08 19:52 46.23407 -112.94264 34551 ft 402 kts 302°
2026-05-08 19:52 46.24982 -112.97589 34926 ft 401 kts 302°
2026-05-08 19:52 46.26559 -113.00923 35273 ft 400 kts 302°
2026-05-08 19:52 46.28123 -113.04236 35636 ft 399 kts 302°
2026-05-08 19:53 46.29687 -113.07547 36017 ft 398 kts 302°
2026-05-08 19:53 46.31243 -113.10845 36392 ft 396 kts 302°
2026-05-08 19:53 46.32796 -113.14137 36786 ft 395 kts 302°
2026-05-08 19:53 46.34342 -113.17420 37130 ft 394 kts 302°
2026-05-08 19:54 46.35880 -113.20690 37489 ft 393 kts 302°
2026-05-08 19:54 46.37416 -113.23953 37829 ft 391 kts 302°
2026-05-08 19:54 46.38951 -113.27213 37961 ft 392 kts 302°
2026-05-08 19:54 46.40483 -113.30473 37970 ft 391 kts 302°
2026-05-08 19:55 46.43537 -113.37000 37968 ft 391 kts 302°
2026-05-08 19:55 46.46491 -113.43339 37971 ft 391 kts 302°
2026-05-08 19:56 46.49512 -113.49839 37970 ft 391 kts 301°
2026-05-08 19:56 46.52560 -113.56379 37973 ft 392 kts 301°
2026-05-08 19:57 46.55607 -113.62943 37979 ft 392 kts 301°
2026-05-08 19:57 46.58647 -113.69528 37978 ft 392 kts 301°
2026-05-08 19:58 46.61690 -113.76115 37977 ft 392 kts 301°
2026-05-08 19:58 46.64735 -113.82712 37975 ft 393 kts 301°
2026-05-08 19:59 46.67769 -113.89323 37970 ft 393 kts 301°
2026-05-08 19:59 46.70797 -113.95954 37975 ft 393 kts 301°
2026-05-08 20:00 46.73832 -114.02585 37969 ft 393 kts 301°
2026-05-08 20:00 46.76862 -114.09239 37979 ft 394 kts 300°
2026-05-08 20:01 46.79876 -114.15860 37964 ft 394 kts 301°
2026-05-08 20:01 46.82910 -114.22533 37976 ft 395 kts 300°
2026-05-08 20:02 46.85950 -114.29227 37959 ft 395 kts 300°
2026-05-08 20:02 46.88980 -114.35931 37948 ft 396 kts 300°
2026-05-08 20:03 46.92007 -114.42652 37953 ft 397 kts 300°
2026-05-08 20:03 46.95042 -114.49400 37955 ft 397 kts 300°
2026-05-08 20:04 46.98071 -114.56168 37958 ft 397 kts 300°
2026-05-08 20:04 47.01097 -114.62947 37962 ft 397 kts 300°
2026-05-08 20:05 47.04127 -114.69720 37951 ft 398 kts 300°
2026-05-08 20:05 47.07158 -114.76519 37936 ft 398 kts 300°
2026-05-08 20:06 47.10184 -114.83338 37920 ft 398 kts 299°
2026-05-08 20:06 47.13184 -114.90119 37942 ft 399 kts 299°
2026-05-08 20:07 47.16210 -114.96960 37942 ft 399 kts 299°
2026-05-08 20:07 47.19232 -115.03811 37932 ft 399 kts 299°
2026-05-08 20:08 47.22241 -115.10665 37938 ft 400 kts 299°
2026-05-08 20:08 47.25258 -115.17553 37936 ft 400 kts 298°
2026-05-08 20:09 47.28274 -115.24438 37925 ft 401 kts 298°
2026-05-08 20:09 47.31294 -115.31357 37922 ft 401 kts 298°
2026-05-08 20:10 47.34305 -115.38279 37928 ft 401 kts 298°
2026-05-08 20:10 47.37299 -115.45167 37932 ft 401 kts 298°
2026-05-08 20:11 47.40323 -115.52146 37916 ft 401 kts 298°
2026-05-08 20:11 47.43308 -115.59056 37914 ft 402 kts 298°
2026-05-08 20:12 47.46311 -115.66024 37922 ft 402 kts 298°
2026-05-08 20:12 47.49356 -115.72961 37926 ft 402 kts 296°
2026-05-08 20:13 47.50517 -115.76665 37936 ft 393 kts 282°
2026-05-08 20:13 47.50932 -115.80619 37931 ft 388 kts 271°
2026-05-08 20:13 47.51192 -115.88596 37940 ft 389 kts 270°
2026-05-08 20:14 47.51429 -115.96586 37945 ft 390 kts 270°
2026-05-08 20:14 47.51672 -116.04605 37954 ft 390 kts 270°
2026-05-08 20:15 47.51947 -116.12623 37964 ft 391 kts 270°
2026-05-08 20:15 47.52250 -116.20675 37968 ft 392 kts 270°
2026-05-08 20:16 47.52548 -116.28730 37973 ft 392 kts 270°
2026-05-08 20:16 47.52835 -116.36796 37979 ft 393 kts 270°
2026-05-08 20:17 47.53116 -116.44888 37984 ft 394 kts 270°
2026-05-08 20:17 47.53385 -116.52934 37996 ft 394 kts 270°
2026-05-08 20:18 47.53643 -116.61042 38001 ft 395 kts 269°
2026-05-08 20:18 47.53902 -116.69181 38007 ft 396 kts 269°
2026-05-08 20:19 47.54165 -116.77312 38013 ft 396 kts 269°
2026-05-08 20:19 47.54420 -116.85457 38013 ft 397 kts 269°
2026-05-08 20:20 47.54663 -116.93622 38015 ft 397 kts 269°
2026-05-08 20:20 47.54897 -117.01795 38007 ft 398 kts 269°
2026-05-08 20:21 47.55131 -117.09979 38005 ft 398 kts 269°
2026-05-08 20:21 47.55358 -117.18123 38005 ft 399 kts 268°
2026-05-08 20:22 47.55579 -117.26342 38004 ft 400 kts 268°
2026-05-08 20:22 47.55760 -117.33229 38005 ft 400 kts 268°
2026-05-08 20:23 47.55977 -117.41474 38010 ft 401 kts 268°
2026-05-08 20:23 47.56184 -117.49724 38012 ft 402 kts 268°
2026-05-08 20:24 47.56378 -117.57946 38021 ft 402 kts 268°
2026-05-08 20:24 47.56836 -117.66210 38013 ft 405 kts 274°
2026-05-08 20:25 47.57645 -117.74476 38017 ft 406 kts 273°
2026-05-08 20:25 47.58434 -117.82757 38020 ft 406 kts 273°
2026-05-08 20:26 47.59221 -117.91047 38015 ft 406 kts 273°
2026-05-08 20:26 47.60000 -117.99339 38011 ft 406 kts 273°
2026-05-08 20:27 47.60757 -118.07467 38007 ft 407 kts 273°
2026-05-08 20:27 47.61531 -118.15772 38004 ft 407 kts 273°
2026-05-08 20:28 47.62296 -118.24092 38003 ft 408 kts 273°
2026-05-08 20:28 47.63057 -118.32431 38007 ft 408 kts 273°
2026-05-08 20:29 47.63816 -118.40776 38010 ft 409 kts 273°
2026-05-08 20:29 47.64571 -118.49125 38019 ft 409 kts 272°
2026-05-08 20:30 47.65311 -118.57491 38021 ft 409 kts 272°
2026-05-08 20:30 47.66042 -118.65821 38025 ft 410 kts 272°
2026-05-08 20:31 47.66773 -118.74215 38033 ft 410 kts 272°
2026-05-08 20:31 47.67499 -118.82617 38035 ft 411 kts 272°
2026-05-08 20:32 47.68227 -118.91026 38037 ft 412 kts 272°
2026-05-08 20:32 47.68946 -118.99454 38047 ft 412 kts 272°
2026-05-08 20:33 47.69660 -119.07914 38047 ft 413 kts 272°
2026-05-08 20:33 47.70366 -119.16375 38051 ft 413 kts 272°
2026-05-08 20:34 47.71068 -119.24856 37939 ft 414 kts 272°
2026-05-08 20:34 47.71766 -119.33350 37557 ft 415 kts 272°
2026-05-08 20:35 47.72112 -119.37609 37368 ft 416 kts 272°
2026-05-08 20:35 47.72459 -119.41890 37177 ft 417 kts 272°
2026-05-08 20:35 47.72807 -119.46165 36994 ft 418 kts 272°
2026-05-08 20:35 47.73155 -119.50456 36816 ft 419 kts 272°
2026-05-08 20:36 47.73499 -119.54705 36598 ft 420 kts 272°
2026-05-08 20:36 47.73842 -119.59011 36342 ft 421 kts 272°
2026-05-08 20:36 47.74181 -119.63332 36088 ft 421 kts 272°
2026-05-08 20:36 47.74518 -119.67663 35838 ft 422 kts 272°
2026-05-08 20:37 47.74857 -119.72007 35591 ft 424 kts 272°
2026-05-08 20:37 47.75199 -119.76362 35342 ft 425 kts 272°
2026-05-08 20:37 47.75541 -119.80721 35035 ft 426 kts 271°
2026-05-08 20:37 47.75881 -119.85098 34602 ft 427 kts 271°
2026-05-08 20:38 47.76222 -119.89489 34181 ft 428 kts 271°
2026-05-08 20:38 47.76564 -119.93913 33734 ft 430 kts 271°
2026-05-08 20:38 47.76901 -119.98323 33252 ft 431 kts 271°
2026-05-08 20:38 47.77236 -120.02767 32772 ft 432 kts 271°
2026-05-08 20:39 47.77566 -120.07219 32318 ft 435 kts 271°
2026-05-08 20:39 47.77897 -120.11703 31864 ft 437 kts 271°
2026-05-08 20:39 47.78230 -120.16202 31419 ft 439 kts 271°
2026-05-08 20:39 47.78566 -120.20719 30976 ft 441 kts 271°
2026-05-08 20:40 47.78897 -120.25199 30551 ft 443 kts 271°
2026-05-08 20:40 47.79231 -120.29753 30127 ft 445 kts 271°
2026-05-08 20:40 47.79569 -120.34385 29634 ft 445 kts 271°
2026-05-08 20:40 47.79895 -120.38894 29155 ft 442 kts 271°
2026-05-08 20:41 47.80223 -120.43431 28670 ft 439 kts 271°
2026-05-08 20:41 47.80549 -120.47914 28201 ft 435 kts 271°
2026-05-08 20:41 47.80873 -120.52377 27738 ft 431 kts 271°
2026-05-08 20:41 47.81191 -120.56791 27279 ft 427 kts 271°
2026-05-08 20:42 47.81501 -120.61177 26834 ft 424 kts 271°
2026-05-08 20:42 47.81808 -120.65527 26391 ft 421 kts 271°
2026-05-08 20:42 47.82109 -120.69838 25960 ft 417 kts 271°
2026-05-08 20:42 47.82405 -120.74110 25535 ft 414 kts 271°
2026-05-08 20:43 47.82696 -120.78350 25113 ft 410 kts 271°
2026-05-08 20:43 47.82985 -120.82562 24689 ft 407 kts 271°
2026-05-08 20:43 47.83270 -120.86736 24292 ft 403 kts 271°
2026-05-08 20:43 47.83551 -120.90863 23887 ft 400 kts 271°
2026-05-08 20:44 47.83829 -120.94980 23452 ft 397 kts 271°
2026-05-08 20:44 47.84101 -120.99055 22971 ft 394 kts 271°
2026-05-08 20:44 47.84371 -121.03101 22500 ft 391 kts 271°
2026-05-08 20:44 47.84640 -121.07102 22037 ft 387 kts 271°
2026-05-08 20:45 47.84904 -121.11087 21579 ft 385 kts 272°
2026-05-08 20:45 47.85076 -121.13712 21280 ft 383 kts 272°
2026-05-08 20:45 47.85414 -121.18919 20691 ft 380 kts 272°
2026-05-08 20:45 47.85666 -121.22824 20254 ft 377 kts 272°
2026-05-08 20:46 47.85913 -121.26692 19824 ft 374 kts 272°
2026-05-08 20:46 47.86157 -121.30522 19393 ft 369 kts 272°
2026-05-08 20:46 47.86398 -121.34304 18974 ft 364 kts 273°
2026-05-08 20:46 47.86638 -121.38039 18549 ft 362 kts 273°
2026-05-08 20:47 47.86877 -121.41746 18101 ft 358 kts 273°
2026-05-08 20:47 47.87112 -121.45421 17628 ft 355 kts 273°
2026-05-08 20:47 47.87340 -121.49054 17161 ft 351 kts 273°
2026-05-08 20:47 47.87564 -121.52650 16702 ft 347 kts 273°
2026-05-08 20:48 47.87782 -121.56214 16250 ft 344 kts 273°
2026-05-08 20:48 47.87956 -121.59746 15804 ft 339 kts 268°
2026-05-08 20:48 47.87574 -121.63166 15360 ft 334 kts 252°
2026-05-08 20:48 47.86855 -121.66423 14929 ft 331 kts 252°
2026-05-08 20:49 47.86122 -121.69661 14501 ft 327 kts 252°
2026-05-08 20:49 47.85399 -121.72810 14086 ft 324 kts 252°
2026-05-08 20:49 47.84667 -121.75974 13619 ft 322 kts 252°
2026-05-08 20:49 47.83940 -121.79117 13140 ft 321 kts 252°
2026-05-08 20:50 47.83215 -121.82256 12663 ft 320 kts 252°
2026-05-08 20:50 47.82495 -121.85375 12209 ft 318 kts 252°
2026-05-08 20:50 47.81777 -121.88490 11750 ft 317 kts 252°
2026-05-08 20:50 47.81067 -121.91587 11304 ft 314 kts 252°
2026-05-08 20:51 47.80376 -121.94587 10845 ft 298 kts 252°
2026-05-08 20:51 47.79715 -121.97439 10414 ft 285 kts 252°
2026-05-08 20:51 47.79081 -122.00163 9963 ft 274 kts 252°
2026-05-08 20:51 47.78462 -122.02823 9484 ft 273 kts 252°
2026-05-08 20:52 47.77840 -122.05507 9015 ft 275 kts 252°
2026-05-08 20:52 47.77215 -122.08208 8548 ft 276 kts 252°
2026-05-08 20:52 47.76601 -122.10852 8089 ft 267 kts 252°
2026-05-08 20:52 47.75997 -122.13436 7636 ft 265 kts 252°
2026-05-08 20:53 47.75390 -122.16036 7186 ft 270 kts 252°
2026-05-08 20:53 47.74766 -122.18702 6748 ft 273 kts 252°
2026-05-08 20:53 47.74145 -122.21364 6278 ft 270 kts 252°
2026-05-08 20:53 47.73537 -122.23968 5808 ft 262 kts 252°
2026-05-08 20:54 47.72949 -122.26492 5430 ft 253 kts 251°
2026-05-08 20:54 47.72393 -122.28867 5134 ft 242 kts 250°
2026-05-08 20:54 47.71848 -122.31173 4823 ft 231 kts 250°
2026-05-08 20:54 47.71331 -122.33365 4498 ft 220 kts 250°
2026-05-08 20:55 47.70838 -122.35464 4208 ft 214 kts 249°
2026-05-08 20:55 47.70287 -122.37507 3901 ft 212 kts 239°
2026-05-08 20:55 47.69369 -122.39196 3578 ft 211 kts 221°
2026-05-08 20:55 47.68102 -122.40356 3094 ft 219 kts 200°
2026-05-08 20:56 47.66617 -122.40779 2832 ft 217 kts 181°
2026-05-08 20:56 47.65148 -122.40423 2581 ft 215 kts 163°
2026-05-08 20:56 47.63838 -122.39441 2296 ft 205 kts 154°
2026-05-08 20:56 47.62640 -122.38417 2055 ft 191 kts 154°
2026-05-08 20:57 47.61529 -122.37471 1786 ft 178 kts 154°
2026-05-08 20:57 47.60492 -122.36591 1526 ft 166 kts 155°
2026-05-08 20:57 47.59556 -122.35794 1334 ft 146 kts 155°
2026-05-08 20:57 47.58706 -122.35074 1144 ft 137 kts 156°
2026-05-08 20:58 47.57882 -122.34378 944 ft 135 kts 156°
2026-05-08 20:58 47.57070 -122.33690 762 ft 133 kts 154°
2026-05-08 20:58 47.56275 -122.33018 574 ft 131 kts 155°
2026-05-08 20:58 47.55487 -122.32352 407 ft 130 kts 154°
2026-05-08 20:59 47.54703 -122.31678 238 ft 131 kts 153°
2026-05-08 20:59 47.53910 -122.31013 51 ft 132 kts 154°
2026-05-08 20:59 47.53191 -122.30412 31 ft 100 kts 149°
2026-05-08 20:59 47.52733 -122.30025 25 ft 57 kts 151°
2026-05-08 21:00 47.52420 -122.29761 29 ft 46 kts 150°
2026-05-08 21:00 47.52271 -122.29673 31 ft 14 kts 226°
2026-05-08 21:00 47.52279 -122.29788 32 ft 14 kts 325°
2026-05-08 21:00 47.52379 -122.29875 29 ft 20 kts 329°
2026-05-08 21:01 47.52511 -122.29983 27 ft 24 kts 331°
2026-05-08 21:01 47.52640 -122.30093 27 ft 17 kts 330°
2026-05-08 21:01 47.52741 -122.30178 27 ft 18 kts 330°
2026-05-08 21:01 47.52857 -122.30281 28 ft 20 kts 329°
2026-05-08 21:02 47.52966 -122.30369 29 ft 18 kts 331°
2026-05-08 21:02 47.53067 -122.30478 28 ft 16 kts 298°
2026-05-08 21:02 47.53139 -122.30621 26 ft 20 kts 313°
2026-05-08 21:02 47.53236 -122.30788 25 ft 19 kts 311°
2026-05-08 21:03 47.53310 -122.30851 23 ft 10 kts 34°
2026-05-08 21:03 47.53332 -122.30807 23 ft 0 kts 62°